This is the latest recevied weather packets stored in our database for station/object K5NCO. If no packets are shown the sender has not sent any weather packets the latest 10 day(s).
| Time | Temp. | Humidity | Pressure | Rain* | Wind** | Luminosity | Snow |
|---|---|---|---|---|---|---|---|
| 1777586083 | 18.89° C | 97% | 1012.2 hPa | 0 mm | - | 40 W/m² | - |
| 1777585781 | 18.89° C | 97% | 1012.2 hPa | 0 mm | - | 48 W/m² | - |
| 1777585476 | 18.89° C | 97% | 1012.4 hPa | 0 mm | - | 52 W/m² | - |
| 1777585173 | 18.89° C | 98% | 1012.2 hPa | 0 mm | - | 61 W/m² | - |
| 1777584868 | 18.89° C | 98% | 1012.1 hPa | 0 mm | - | 77 W/m² | - |
| 1777584567 | 18.89° C | 99% | 1012.1 hPa | 0 mm | - | 78 W/m² | - |
| 1777584263 | 18.89° C | 99% | 1011.8 hPa | 0 mm | - | 108 W/m² | - |
| 1777583963 | 18.33° C | 99% | 1012.1 hPa | 0 mm | - | 115 W/m² | - |
| 1777583659 | 18.33° C | 99% | 1012.4 hPa | 0 mm | - | 99 W/m² | - |
| 1777583358 | 18.33° C | 99% | 1012 hPa | 0 mm | - | 217 W/m² | - |
| 1777583052 | 18.33° C | 99% | 1012.2 hPa | 0 mm | - | 206 W/m² | - |
| 1777582749 | 18.33° C | 99% | 1012.2 hPa | 0 mm | - | 262 W/m² | - |
| 1777582445 | 18.33° C | 99% | 1012.3 hPa | 0 mm | - | 354 W/m² | - |
| 1777582145 | 17.78° C | 99% | 1012.2 hPa | 0 mm | - | 378 W/m² | - |
| 1777581844 | 17.78° C | 99% | 1012.5 hPa | 0 mm | - | 282 W/m² | - |
| 1777581543 | 17.78° C | 99% | 1013 hPa | 0 mm | - | 172 W/m² | - |
| 1777581239 | 17.78° C | 99% | 1012.9 hPa | 0 mm | - | 225 W/m² | - |
| 1777580939 | 17.78° C | 99% | 1013 hPa | 0 mm | - | 315 W/m² | - |
| 1777580633 | 17.78° C | 99% | 1013.2 hPa | 0 mm | - | 253 W/m² | - |
| 1777580329 | 17.78° C | 99% | 1012.9 hPa | 0 mm | - | 160 W/m² | - |
| 1777580026 | 17.22° C | 99% | 1013.1 hPa | 0 mm | - | 127 W/m² | - |
| 1777579722 | 17.22° C | 99% | 1013.4 hPa | 0 mm | - | 155 W/m² | - |
| 1777579420 | 17.22° C | 99% | 1013.7 hPa | 0 mm | - | 150 W/m² | - |
| 1777579116 | 17.22° C | 99% | 1014 hPa | 0 mm | - | 113 W/m² | - |
| 1777578815 | 17.22° C | 99% | 1013.9 hPa | 0 mm | - | 92 W/m² | - |
* Rain latest hour (hover to see other rain measurements)
** Current wind speed in m/s (hover to see current wind gust speed)